EW2811 Weather Reports


time (UTC)temp
C
wind
direction
speed
KPH
gust
KPH
rain 1hr
cm
rain 24hr
cm
rain mn
cm
humidity
%
barometer
mb
20260504050144 12 191 0.0 0.0 0.00 0.00 0.00 54 1001.3
20260504045149 11 287 0.0 0.0 0.00 0.00 0.00 62 1001.7
20260504045143 11 260 0.0 0.0 0.00 0.00 0.00 58 1001.5
20260504043143 11 287 0.0 0.0 0.00 0.00 0.00 62 1001.9
20260504042141 11 287 0.0 0.0 0.00 0.00 0.00 60 1002.1
20260504041142 11 287 0.0 0.0 0.00 0.00 0.00 58 1002.5
20260504041138 11 287 0.0 0.0 0.00 0.00 0.00 59 1002.3
20260504040248 11 287 0.0 0.0 0.00 0.00 0.00 56 1002.8
20260504035136 11 287 0.0 0.0 0.00 0.00 0.00 58 1002.7
20260504033136 12 287 0.0 0.0 0.00 0.00 0.00 57 1003.1
20260504032141 12 287 0.0 0.0 0.00 0.00 0.00 55 1003.4
20260504032137 12 287 0.0 0.0 0.00 0.00 0.00 56 1003.3
20260504030136 12 287 0.0 0.0 0.00 0.00 0.00 55 1003.5
20260504025136 13 288 0.0 0.0 0.00 0.00 0.00 54 1003.6
20260504024142 14 284 0.0 0.0 0.00 0.00 0.00 47 1003.7
20260504024136 13 288 0.0 0.0 0.00 0.00 0.00 51 1003.7
20260504023137 13 286 0.0 0.0 0.00 0.00 0.00 49 1003.7
20260504021137 15 283 0.0 0.0 0.00 0.00 0.00 46 1003.7
20260504020141 16 283 0.0 0.0 0.00 0.00 0.00 41 1003.7
20260504020137 15 283 0.0 0.0 0.00 0.00 0.00 43 1003.7
20260504015137 16 283 0.0 0.0 0.00 0.00 0.00 42 1003.6
20260504013136 17 283 0.0 0.0 0.00 0.00 0.00 38 1003.7
20260504012136 17 283 0.0 0.0 0.00 0.00 0.00 34 1003.8
20260504011134 18 271 0.0 0.0 0.00 0.00 0.00 35 1003.8
20260504010132 18 271 0.0 0.0 0.00 0.00 0.00 33 1003.8
20260504005136 19 266 0.0 0.0 0.00 0.00 0.00 32 1004.0
20260504005132 18 269 0.0 0.0 0.00 0.00 0.00 35 1003.9
20260504004131 19 269 0.0 0.0 0.00 0.00 0.00 32 1004.1
20260504003235 19 266 0.0 0.0 0.00 0.00 0.00 30 1004.0
20260504001130 19 305 0.0 0.0 0.00 0.00 0.00 31 1004.1
20260504000131 20 270 0.0 0.0 0.00 0.00 0.00 29 1004.1
20260503235135 20 269 0.0 0.0 0.00 0.00 0.00 27 1004.2
20260503235131 20 308 0.0 0.0 0.00 0.00 0.00 29 1004.1
20260503233128 21 248 0.0 0.0 0.00 0.00 0.00 27 1004.1
20260503232132 21 246 0.0 0.0 0.00 0.00 0.00 26 1004.3
20260503232128 21 186 0.0 0.0 0.00 0.00 0.00 25 1004.2
20260503231238 21 209 0.0 0.0 0.00 0.00 0.00 25 1004.4
20260503230128 21 303 0.0 0.0 0.00 0.00 0.00 25 1004.4
20260503224130 21 298 0.0 0.0 0.00 0.00 0.00 23 1004.7
20260503224126 21 355 0.0 0.0 0.00 0.00 0.00 25 1004.6
20260503222128 21 284 0.0 0.0 0.00 0.00 0.00 25 1004.7
20260503221127 21 321 0.0 0.0 0.00 0.00 0.00 26 1004.8
20260503220131 21 258 0.0 0.0 0.00 0.00 0.00 27 1005.0
20260503220126 21 258 0.0 0.0 0.00 0.00 0.00 24 1004.9
20260503215233 21 327 0.0 0.0 0.00 0.00 0.00 25 1005.1
20260503214239 21 302 0.0 0.0 0.00 0.00 0.00 27 1005.1
20260503214234 20 279 0.0 1.6 0.00 0.00 0.00 23 1005.1
20260503213234 20 281 0.0 0.0 0.00 0.00 0.00 26 1005.1
20260503210122 20 285 0.0 0.0 0.00 0.00 0.00 25 1005.3
20260503205122 20 55 0.0 0.0 0.00 0.00 0.00 26 1005.4
20260503204122 21 308 0.0 0.0 0.00 0.00 0.00 25 1005.4
20260503203131 21 277 0.0 0.0 0.00 0.00 0.00 29 1005.5
20260503203124 21 300 0.0 1.6 0.00 0.00 0.00 26 1005.4
20260503202123 21 290 0.0 0.0 0.00 0.00 0.00 29 1005.4
20260503201122 21 307 0.0 1.6 0.00 0.00 0.00 27 1005.6
20260503195122 20 332 0.0 0.0 0.00 0.00 0.00 25 1005.7
20260503194122 21 264 0.0 1.6 0.00 0.00 0.00 26 1005.8
20260503193122 21 290 0.0 0.0 0.00 0.00 0.00 30 1005.8
20260503192130 21 294 0.0 0.0 0.00 0.00 0.00 33 1005.9
20260503192121 21 291 0.0 0.0 0.00 0.00 0.00 28 1005.9
20260503190122 20 297 0.0 1.6 0.00 0.00 0.00 31 1006.1
20260503185127 20 0 0.0 0.0 0.00 0.00 0.00 33 1006.1
20260503185122 20 315 0.0 0.0 0.00 0.00 0.00 32 1006.0
20260503183127 20 300 0.0 6.4 0.00 0.00 0.00 38 1006.2
20260503183121 20 254 0.0 0.0 0.00 0.00 0.00 33 1006.1
20260503181126 19 293 0.0 8.0 0.00 0.00 0.00 39 1006.3
20260503181120 20 318 0.0 3.2 0.00 0.00 0.00 37 1006.2
20260503175120 19 270 0.0 12.9 0.00 0.00 0.00 38 1006.5
20260503174118 19 306 0.0 6.4 0.00 0.00 0.00 37 1006.4
20260503173117 19 50 0.0 0.0 0.00 0.00 0.00 39 1006.5
20260503172117 19 299 0.0 12.9 0.00 0.00 0.00 39 1006.5
20260503171117 19 300 0.0 1.6 0.00 0.00 0.00 40 1006.6
20260503170115 19 301 0.0 8.0 0.00 0.00 0.00 41 1006.5
20260503160115 18 298 0.0 6.4 0.00 0.00 0.00 43 1006.4
20260503150111 16 266 0.0 3.2 0.00 0.00 0.00 49 1006.2
20260503140109 14 13 0.0 0.0 0.00 0.00 0.00 54 1006.1
20260503131108 12 306 0.0 0.0 0.00 0.00 0.00 57 1005.6
20260503130112 12 285 0.0 0.0 0.00 0.00 0.00 59 1005.5
20260503130108 12 247 0.0 0.0 0.00 0.00 0.00 54 1005.6
20260503120107 10 169 0.0 0.0 0.00 0.00 0.00 67 1005.0
20260503110107 11 161 0.0 0.0 0.00 0.00 0.00 57 1004.6
20260503100105 13 158 0.0 0.0 0.00 0.00 0.00 51 1004.7
20260503081101 13 198 0.0 0.0 0.00 0.00 0.00 58 1005.3
20260503081057 13 176 0.0 0.0 0.00 0.00 0.00 58 1005.2
20260503072100 13 175 0.0 0.0 0.00 0.00 0.00 57 1005.7
20260503072055 13 178 0.0 0.0 0.00 0.00 0.00 56 1005.9
20260503071209 13 183 0.0 0.0 0.00 0.00 0.00 53 1006.4
20260503071203 13 164 0.0 0.0 0.00 0.00 0.00 55 1006.1